Location: Monteux
(44.0348°N, 4.9972°E)
Time: 17:50:10
(UTC+00:00)

Cosmos 923 Rocket - Pass Details

Date: 30 November 2020
Orbit: 757 x 786 km, 74.0° (Epoch: 17 January)

Event Time Altitude Azimuth Distance (km) Brightness Sun altitude
Rises 17:50:34 0° 184° (S) 3,199 7.4 -18.7°
Reaches altitude 10° 17:52:59 10° 179° (S) 2,279 6.6 -19.1°
Maximum altitude 17:57:57 51° 105° (ESE) 958 4.1 -20.0°
Enters shadow 17:59:14 41° 62° (ENE) 1,099 4.3 -20.2°
